EW5492 Weather Reports


time (UTC)temp
F
wind
direction
speed
knots
gust
knots
rain 1hr
in
rain 24hr
in
rain mn
in
humidity
%
barometer
mb
20260504081500 39 22 0.0 1.7 0.00 0.00 0.00 83 1009.7
20260504044530 36 22 0.0 0.0 0.00 0.00 0.00 82 1010.3
20260504043023 35 22 0.0 1.7 0.00 0.00 0.00 85 1010.4
20260504041619 34 22 0.0 0.0 0.00 0.00 0.00 84 1010.3
20260504040104 33 22 0.0 0.9 0.00 0.00 0.00 85 1010.3
20260504034610 33 22 0.0 0.0 0.00 0.00 0.00 86 1010.3
20260504033016 32 22 0.0 0.9 0.00 0.00 0.00 86 1010.3
20260504031516 32 22 0.0 0.0 0.00 0.00 0.00 84 1010.3
20260504024546 33 22 0.0 0.0 0.00 0.00 0.00 83 1010.3
20260504023038 34 22 0.0 0.0 0.00 0.00 0.00 81 1010.4
20260504021535 34 22 0.0 0.9 0.00 0.00 0.00 80 1010.5
20260504020033 35 22 0.0 0.0 0.00 0.00 0.00 79 1010.4
20260504014530 36 22 0.0 0.0 0.00 0.00 0.00 76 1010.2
20260504013030 37 22 0.0 0.0 0.00 0.00 0.00 75 1010.1
20260504011521 38 22 0.0 0.0 0.00 0.00 0.00 71 1009.9
20260504010016 39 22 0.0 0.0 0.00 0.00 0.00 67 1009.7
20260504004514 40 22 0.0 0.0 0.00 0.00 0.00 65 1009.4
20260504003038 42 22 0.0 0.0 0.00 0.00 0.00 65 1009.3
20260504001534 44 22 0.0 0.0 0.00 0.00 0.00 61 1009.1
20260504000001 45 22 0.0 0.9 0.00 0.00 0.00 53 1008.9
20260503234558 46 22 0.0 0.9 0.00 0.00 0.00 47 1008.8
20260503233052 47 22 0.0 3.5 0.00 0.00 0.00 48 1008.6
20260503231553 48 24 0.9 3.5 0.00 0.00 0.00 45 1008.6
20260503230050 48 20 0.0 2.6 0.00 0.00 0.00 43 1008.6
20260503224547 49 33 0.9 3.5 0.00 0.00 0.00 44 1008.6
20260503223019 49 36 1.7 5.2 0.00 0.00 0.00 44 1008.5
20260503221518 49 18 2.6 4.3 0.00 0.00 0.00 43 1008.6
20260503220013 50 40 0.9 8.7 0.00 0.00 0.00 45 1008.5
20260503214511 50 14 0.9 5.2 0.00 0.00 0.00 44 1008.5
20260503213013 50 40 2.6 7.8 0.00 0.00 0.00 43 1008.4
20260503211509 50 28 2.6 7.8 0.00 0.00 0.00 43 1008.4
20260503210009 50 39 0.9 7.0 0.00 0.00 0.00 44 1008.4
20260503204506 50 289 2.6 8.7 0.00 0.00 0.00 42 1008.4
20260503203105 49 288 1.7 9.6 0.00 0.00 0.00 43 1008.4
20260503201504 50 48 2.6 7.8 0.00 0.00 0.00 43 1008.4
20260503200002 50 69 2.6 10.4 0.00 0.00 0.00 40 1008.3
20260503194601 51 44 2.6 15.6 0.00 0.00 0.00 43 1008.5
20260503193112 50 29 0.9 11.3 0.00 0.00 0.00 43 1008.6
20260503191600 50 30 1.7 9.6 0.00 0.00 0.00 42 1008.7
20260503190107 50 65 1.7 8.7 0.00 0.00 0.00 42 1008.8
20260503184556 50 360 2.6 11.3 0.00 0.00 0.00 41 1008.7
20260503183101 50 31 3.5 13.0 0.00 0.00 0.00 42 1008.8
20260503181551 51 355 4.3 12.2 0.00 0.00 0.00 41 1008.5
20260503180056 51 36 3.5 9.6 0.00 0.00 0.00 42 1008.4
20260503174548 54 65 6.1 10.4 0.00 0.00 0.00 37 1008.2
20260503173107 51 211 2.6 12.2 0.00 0.00 0.00 37 1008.2
20260503171551 52 247 3.5 10.4 0.00 0.00 0.00 40 1007.9